Flag Island, MN

8:40 PM CDT on July 25, 2017 (GMT -0500)
Flag Island

Weather History for KFGN - November, 2011

Change the Weather History Date:

Tuesday, November 8, 2011

  Actual Average Record
Temperature  
Mean Temperature 36 °F -  
Max Temperature 44 °F 32 °F 53 °F (2010)
Min Temperature 28 °F 24 °F 3 °F (2003)
Degree Days  
Heating Degree Days 29    
Moisture  
Dew Point 27 °F    
Average Humidity 76    
Maximum Humidity 93    
Minimum Humidity 49    
Precipitation  
Precipitation 0.00 in - - ()
Sea Level Pressure  
Sea Level Pressure 30.11 in    
Wind  
Wind Speed 3 mph (SSW)    
Max Wind Speed 13 mph    
Max Gust Speed -    
Visibility 10 miles    
Events      
Averages and records for this station are not official NWS values.
T = Trace of Precipitation, MM = Missing Value Source: NWS Daily Summary

Daily Weather History Graph

Daily Weather History Graph

Search for Another Location

Airport or City:

Trip Planner

Search our weather history database for the weather conditions in past years. The results will help you decide how hot, cold, wet, or windy it might be!

Date:

Astronomy

Nov. 08, 2011 Rise Set
Actual Time 7:18 AM CST 4:47 PM CST
Civil Twilight 6:44 AM CST 5:21 PM CST
Nautical Twilight 6:06 AM CST 5:59 PM CST
Astronomical Twilight 5:29 AM CST 6:36 PM CST
Moon 3:31 PM CST (11/8) 5:12 AM CST (11/8)
Length of Visible Light 10h 37m
Length of Day
9h 28m
Waxing Gibbous, 96% of the Moon is Illuminated
Nov 8
Waxing Gibbous
Nov 10
Full
Nov 18
Last Quarter
Nov 25
New
Dec 2
First Quarter

Hourly Weather History & Observations

Time (CST) Temp. Windchill Dew Point Humidity Pressure Visibility Wind Dir Wind Speed Gust Speed Precip Events Conditions
12:13 AM 30.2 °F - 26.6 °F 86% 30.12 in 10.0 mi Calm Calm - N/A   Clear
12:33 AM 30.2 °F - 26.6 °F 86% 30.12 in 10.0 mi Calm Calm - N/A   Clear
12:54 AM 30.2 °F 26.7 °F 26.6 °F 86% 30.12 in 10.0 mi WSW 3.5 mph - N/A   Clear
1:13 AM 30.2 °F 26.7 °F 26.6 °F 86% 30.12 in 10.0 mi West 3.5 mph - N/A   Clear
1:33 AM 30.2 °F 25.4 °F 26.6 °F 86% 30.12 in 10.0 mi West 4.6 mph - N/A   Clear
1:54 AM 28.4 °F 22.2 °F 26.6 °F 93% 30.12 in 10.0 mi West 5.8 mph - N/A   Clear
2:13 AM 28.4 °F 23.3 °F 26.6 °F 93% 30.12 in 10.0 mi West 4.6 mph - N/A   Clear
2:33 AM 28.4 °F 24.6 °F 26.6 °F 93% 30.12 in 10.0 mi West 3.5 mph - N/A   Clear
2:54 AM 28.4 °F - 24.8 °F 86% 30.12 in 10.0 mi Calm Calm - N/A   Clear
3:13 AM 28.4 °F - 26.6 °F 93% 30.12 in 10.0 mi Calm Calm - N/A   Clear
3:33 AM 28.4 °F - 26.6 °F 93% 30.13 in 10.0 mi Calm Calm - N/A   Clear
3:54 AM 28.4 °F - 26.6 °F 93% 30.12 in 10.0 mi Calm Calm - N/A   Clear
4:13 AM 28.4 °F - 24.8 °F 86% 30.12 in 10.0 mi Calm Calm - N/A   Clear
4:34 AM 28.4 °F 24.6 °F 24.8 °F 86% 30.13 in 10.0 mi WSW 3.5 mph - N/A   Clear
5:14 AM 28.4 °F 24.6 °F 26.6 °F 93% 30.13 in 10.0 mi SW 3.5 mph - N/A   Clear
5:33 AM 28.4 °F 24.6 °F 24.8 °F 86% 30.13 in 10.0 mi SW 3.5 mph - N/A   Clear
5:53 AM 28.4 °F - 24.8 °F 86% 30.13 in 10.0 mi Calm Calm - N/A   Clear
6:13 AM 28.4 °F - 24.8 °F 86% 30.13 in 10.0 mi Calm Calm - N/A   Clear
6:33 AM 28.4 °F - 26.6 °F 93% 30.14 in 10.0 mi Calm Calm - N/A   Clear
6:54 AM 28.4 °F 24.6 °F 26.6 °F 93% 30.14 in 10.0 mi SSW 3.5 mph - N/A   Clear
7:13 AM 28.4 °F 24.6 °F 26.6 °F 93% 30.14 in 10.0 mi SSW 3.5 mph - N/A   Clear
7:34 AM 30.2 °F 25.4 °F 26.6 °F 86% 30.15 in 10.0 mi South 4.6 mph - N/A   Clear
7:54 AM 30.2 °F 26.7 °F 26.6 °F 86% 30.14 in 10.0 mi South 3.5 mph - N/A   Clear
8:13 AM 32.0 °F 27.5 °F 26.6 °F 80% 30.14 in 10.0 mi SSW 4.6 mph - N/A   Clear
8:34 AM 32.0 °F 28.7 °F 28.4 °F 87% 30.14 in 10.0 mi SSW 3.5 mph - N/A   Clear
8:53 AM 33.8 °F 30.8 °F 28.4 °F 81% 30.14 in 10.0 mi SSW 3.5 mph - N/A   Clear
9:13 AM 32.0 °F 28.7 °F 28.4 °F 87% 30.13 in 10.0 mi SSW 3.5 mph - N/A   Clear
9:34 AM 33.8 °F 30.8 °F 28.4 °F 81% 30.13 in 10.0 mi South 3.5 mph - N/A   Clear
9:53 AM 35.6 °F - 30.2 °F 81% 30.13 in 10.0 mi Calm Calm - N/A   Clear
10:13 AM 35.6 °F 32.8 °F 30.2 °F 81% 30.12 in 10.0 mi SSE 3.5 mph - N/A   Clear
10:34 AM 35.6 °F 32.8 °F 30.2 °F 81% 30.11 in 10.0 mi SSE 3.5 mph - N/A   Clear
10:53 AM 37.4 °F 30.3 °F 30.2 °F 75% 30.11 in 10.0 mi South 10.4 mph - N/A   Clear
11:13 AM 37.4 °F 30.3 °F 30.2 °F 75% 30.10 in 10.0 mi SSE 10.4 mph - N/A   Clear
11:34 AM 37.4 °F 30.3 °F 30.2 °F 75% 30.09 in 10.0 mi SSE 10.4 mph - N/A   Clear
11:53 AM 37.4 °F 29.8 °F 30.2 °F 75% 30.09 in 10.0 mi SSE 11.5 mph - N/A   Clear
12:13 PM 39.2 °F 32.0 °F 30.2 °F 70% 30.09 in 10.0 mi SSE 11.5 mph - N/A   Clear
12:33 PM 37.4 °F 29.8 °F 30.2 °F 75% 30.09 in 10.0 mi SSE 11.5 mph - N/A   Clear
12:53 PM 37.4 °F 29.3 °F 32.0 °F 81% 30.08 in 10.0 mi SSE 12.7 mph - N/A   Clear
1:13 PM 39.2 °F 32.0 °F 33.8 °F 81% 30.07 in 10.0 mi SSE 11.5 mph - N/A   Clear
1:34 PM 42.8 °F 39.3 °F 26.6 °F 53% 30.07 in 10.0 mi SSW 5.8 mph - N/A   Clear
1:53 PM 42.8 °F 38.6 °F 26.6 °F 53% 30.06 in 10.0 mi SSW 6.9 mph - N/A   Clear
2:14 PM 42.8 °F 38.6 °F 24.8 °F 49% 30.06 in 10.0 mi SSW 6.9 mph - N/A   Clear
2:33 PM 42.8 °F 39.3 °F 26.6 °F 53% 30.06 in 10.0 mi SSW 5.8 mph - N/A   Clear
2:53 PM 42.8 °F 38.0 °F 26.6 °F 53% 30.07 in 10.0 mi SW 8.1 mph - N/A   Clear
3:13 PM 44.6 °F 40.7 °F 26.6 °F 49% 30.07 in 10.0 mi SSW 6.9 mph - N/A   Clear
3:34 PM 44.6 °F 42.2 °F 26.6 °F 49% 30.07 in 10.0 mi SSW 4.6 mph - N/A   Clear
3:54 PM 42.8 °F 40.1 °F 26.6 °F 53% 30.07 in 10.0 mi SSW 4.6 mph - N/A   Clear
4:13 PM 42.8 °F 41.1 °F 26.6 °F 53% 30.07 in 10.0 mi SSW 3.5 mph - N/A   Clear
4:34 PM 42.8 °F - 28.4 °F 57% 30.07 in 10.0 mi Calm Calm - N/A   Mostly Cloudy
4:53 PM 42.8 °F - 28.4 °F 57% 30.07 in 10.0 mi Calm Calm - N/A   Overcast
5:13 PM 42.8 °F 41.1 °F 30.2 °F 61% 30.07 in 10.0 mi SSW 3.5 mph - N/A   Overcast
5:34 PM 41.0 °F - 24.8 °F 53% 30.07 in 10.0 mi Calm Calm - N/A   Overcast
5:54 PM 41.0 °F - 24.8 °F 53% 30.07 in 10.0 mi Calm Calm - N/A   Overcast
6:13 PM 41.0 °F - 24.8 °F 53% 30.07 in 10.0 mi Calm Calm - N/A   Mostly Cloudy
6:33 PM 39.2 °F 37.0 °F 28.4 °F 65% 30.07 in 10.0 mi SE 3.5 mph - N/A   Scattered Clouds
6:54 PM 39.2 °F 37.0 °F 32.0 °F 75% 30.07 in 10.0 mi SSE 3.5 mph - N/A   Mostly Cloudy
7:13 PM 39.2 °F 35.0 °F 33.8 °F 81% 30.07 in 10.0 mi SSE 5.8 mph - N/A   Overcast
7:33 PM 42.8 °F 37.0 °F 33.8 °F 70% 30.06 in 10.0 mi South 10.4 mph - N/A   Mostly Cloudy
7:54 PM 42.8 °F 36.2 °F 33.8 °F 70% 30.06 in 10.0 mi South 12.7 mph - N/A   Overcast
8:13 PM 42.8 °F 36.2 °F 33.8 °F 70% 30.06 in 10.0 mi South 12.7 mph - N/A   Overcast
8:33 PM 42.8 °F 36.6 °F 32.0 °F 66% 30.06 in 10.0 mi SSE 11.5 mph - N/A   Mostly Cloudy
8:53 PM 42.8 °F 35.8 °F 32.0 °F 66% 30.05 in 10.0 mi South 13.8 mph - N/A   Scattered Clouds
9:13 PM 41.0 °F 34.7 °F 32.0 °F 70% 30.05 in 10.0 mi South 10.4 mph - N/A   Clear
9:33 PM 41.0 °F 34.7 °F 32.0 °F 70% 30.05 in 10.0 mi South 10.4 mph - N/A   Clear
9:54 PM 41.0 °F 35.2 °F 28.4 °F 61% 30.05 in 10.0 mi South 9.2 mph - N/A   Clear
10:13 PM 39.2 °F 33.6 °F 28.4 °F 65% 30.04 in 10.0 mi South 8.1 mph - N/A   Clear
10:33 PM 39.2 °F 35.0 °F 28.4 °F 65% 30.04 in 10.0 mi SSW 5.8 mph - N/A   Clear
10:54 PM 37.4 °F 32.8 °F 28.4 °F 70% 30.04 in 10.0 mi South 5.8 mph - N/A   Clear
11:13 PM 37.4 °F 32.8 °F 28.4 °F 70% 30.03 in 10.0 mi South 5.8 mph - N/A   Clear
11:33 PM 37.4 °F 34.9 °F 28.4 °F 70% 30.03 in 10.0 mi SSW 3.5 mph - N/A   Clear
11:54 PM 35.6 °F 31.7 °F 28.4 °F 75% 30.03 in 10.0 mi SSW 4.6 mph - N/A   Clear